Location: Old Broadwell Mill Observatory
(33.8015°N, 85.8137°W)
Time: 03:13:04
(UTC-05:00)

Amateur Radio Satellites - All Passes

Search period start: 27 March 2015 02:43
Search period end: 28 March 2015 02:43
Location: Old Broadwell Mill Observatory, 33.8015°N, 85.8137°W

Satellite Date Start Highest point End Downlink Frequencies (MHz)
Time Altitude Azimuth
ITUPSAT 1 27 Mar 02:46:12 02:49:35 18° 267° (W) 02:52:47 437.325
YUBILEINY 27 Mar 02:53:20 03:00:44 30° 274° (W) 03:07:50 435.215
KKS-1 27 Mar 02:53:37 02:58:03 79° 258° (WSW) 03:02:30 437.445
RS-15 27 Mar 03:21:01 03:30:38 31° 42° (NE) 03:40:54 29.354- 29.394
AIST 1 27 Mar 03:23:39 03:24:36 11° 87° (E) 03:25:52
ITAMSAT 1 27 Mar 03:24:36 03:29:46 65° 285° (WNW) 03:34:51 435.822/435.867
HORYU 2 27 Mar 03:25:15 03:28:29 20° 94° (E) 03:31:53 437.375
STARS 27 Mar 03:32:34 03:36:45 43° 261° (W) 03:40:55 437.465
Gurwin Techsat 1B 27 Mar 03:57:33 04:02:29 39° 288° (WNW) 04:07:22 435.225
AO-7 27 Mar 03:59:39 04:06:50 33° 97° (E) 04:14:13 29.400- 29.500
JAS-2 27 Mar 04:07:43 04:14:28 34° 93° (E) 04:20:52 435.910
MOZHAYETS 4 27 Mar 04:08:57 04:13:00 32° 73° (ENE) 04:17:09
AUBIESAT-1 27 Mar 04:38:19 04:41:47 33° 67° (ENE) 04:45:36 437.475
VERMONT LUNAR 27 Mar 04:41:19 04:42:27 11° 142° (SE) 04:43:42 437.305
O/OREOS (USA 219) 27 Mar 04:45:08 04:49:42 70° 290° (WNW) 04:54:18 437.305
SO-50 27 Mar 04:51:37 04:56:35 75° 61° (ENE) 05:01:28 436.795
AIST 1 27 Mar 04:57:36 05:01:53 48° 279° (W) 05:06:09
M-CUBED/EXP-1 PRIME 27 Mar 05:00:00 05:03:47 74° 72° (ENE) 05:07:57 437.505
HORYU 2 27 Mar 05:01:14 05:05:12 30° 288° (WNW) 05:09:06 437.375
GONETS M04 27 Mar 05:16:06 05:19:10 13° 62° (ENE) 05:23:01
RS-15 27 Mar 05:32:44 05:44:20 77° 244° (WSW) 05:56:23 29.354- 29.394
STRAND 1 27 Mar 05:33:39 05:35:13 12° 65° (ENE) 05:37:07 437.568
ISS 27 Mar 05:38:46 05:40:23 13° 29° (NNE) 05:42:05 145.825
MOZHAYETS 4 27 Mar 05:46:55 05:50:20 20° 267° (W) 05:53:36
CUBESAT XI-V 27 Mar 05:48:31 05:52:29 28° 72° (ENE) 05:56:32 437.345
AO-7 27 Mar 05:51:59 05:59:49 47° 293° (WNW) 06:07:34 29.400- 29.500
JAS-2 27 Mar 05:52:20 05:59:35 43° 291° (WNW) 06:06:14 435.910
PRISM 27 Mar 06:09:11 06:13:03 38° 73° (ENE) 06:17:00 437.425
AUBIESAT-1 27 Mar 06:14:35 06:16:52 15° 265° (W) 06:19:04 437.475
VERMONT LUNAR 27 Mar 06:16:29 06:19:49 78° 154° (SSE) 06:23:11 437.305
PHONESAT 2.4 27 Mar 06:35:01 06:38:22 43° 149° (SSE) 06:41:44 2401.200-2431.200
Cubesat XI-IV 27 Mar 07:04:30 07:09:52 85° 100° (E) 07:15:11 437.490
CUTE-I 27 Mar 07:05:07 07:10:28 85° 101° (E) 07:15:47 437.470
STRAND 1 27 Mar 07:08:45 07:13:54 73° 259° (W) 07:19:04 437.568
GONETS M04 27 Mar 07:08:54 07:17:45 79° 83° (E) 07:26:37
ISS 27 Mar 07:13:55 07:17:07 65° 226° (SW) 07:20:18 145.825
CUSAT 1 27 Mar 07:19:51 07:22:26 15° 77° (ENE) 07:25:41 437.405
CUBESAT XI-V 27 Mar 07:26:05 07:29:55 24° 266° (W) 07:33:39 437.345
PRISM 27 Mar 07:46:28 07:48:45 14° 268° (W) 07:50:49 437.425
RS-15 27 Mar 07:49:33 07:55:33 14° 258° (WSW) 08:00:23 29.354- 29.394
DANDE 27 Mar 07:52:25 07:55:45 24° 80° (E) 08:00:00 436.750
VERMONT LUNAR 27 Mar 07:54:45 07:57:46 30° 349° (N) 08:00:47 437.305
PHONESAT 2.4 27 Mar 08:13:23 08:16:45 41° 344° (NNW) 08:20:07 2401.200-2431.200
CUTE 1.7 + AOD 2 27 Mar 08:22:26 08:23:45 11° 90° (E) 08:25:20 437.475
HO-68 27 Mar 08:32:37 08:38:24 27° 95° (E) 08:44:23 435.675
GOMX 1 27 Mar 08:35:15 08:38:27 21° 95° (E) 08:41:53 467.674
DOVE 4 27 Mar 08:37:04 08:39:21 14° 93° (E) 08:41:54 437.250
Cubesat XI-IV 27 Mar 08:48:35 08:49:21 10° 296° (WNW) 08:49:43 437.490
CUTE-I 27 Mar 08:49:18 08:49:55 10° 296° (WNW) 08:50:11 437.470
SEEDS 27 Mar 08:53:43 08:57:08 23° 95° (E) 09:00:37 437.485
AAUSAT CUBESAT 2 27 Mar 08:55:36 08:58:17 17° 93° (E) 09:01:06 437.432
CUSAT 1 27 Mar 09:00:59 09:05:07 41° 263° (W) 09:10:30 437.405
GONETS M04 27 Mar 09:08:11 09:13:45 18° 277° (W) 09:18:45
BRITE-PL 27 Mar 09:12:51 09:17:04 84° 283° (WNW) 09:21:27 437.365/2234.400
COMPASS 1 27 Mar 09:19:36 09:23:35 39° 98° (E) 09:27:34 437.405
VERMONT LUNAR 27 Mar 09:33:08 09:36:02 26° 6° (N) 09:38:57 437.305
DANDE 27 Mar 09:35:35 09:38:59 22° 262° (W) 09:43:01 436.750
CANX-2 27 Mar 09:41:24 09:45:41 64° 284° (WNW) 09:49:56 2200.000
UNISAT 6 27 Mar 09:47:28 09:50:32 20° 70° (ENE) 09:53:45 437.425
BEESAT 2 27 Mar 09:47:30 09:49:40 14° 110° (ESE) 09:52:02 435.950
PHONESAT 2.4 27 Mar 09:52:33 09:55:36 26° 1° (N) 09:58:40 2401.200-2431.200
CUTE 1.7 + AOD 2 27 Mar 09:55:50 10:00:00 47° 285° (WNW) 10:04:07 437.475
TIGRISAT 27 Mar 09:58:28 10:01:58 26° 72° (ENE) 10:05:33 435.000
POPSAT HIP 1 27 Mar 10:04:01 10:06:26 16° 70° (ENE) 10:09:01 437.405
UKube-1 27 Mar 10:07:11 10:10:06 18° 94° (E) 10:13:10 .
CINEMA 3 27 Mar 10:10:48 10:15:13 87° 282° (WNW) 10:19:49 145.822/145.860
GOMX 1 27 Mar 10:13:01 10:16:37 26° 287° (WNW) 10:20:16 467.674
DOVE 4 27 Mar 10:13:16 10:17:18 39° 285° (WNW) 10:21:30 437.250
DX 1 27 Mar 10:13:37 10:17:03 23° 95° (E) 10:20:33 434.975-435.025
NANOSAT C BR1 27 Mar 10:14:57 10:18:03 21° 71° (ENE) 10:21:16 145.865
BUGSAT 1 27 Mar 10:16:41 10:19:02 15° 70° (ENE) 10:21:33 437.445
POLYITAN 1 27 Mar 10:16:44 10:19:58 22° 71° (ENE) 10:23:19 437.675
HO-68 27 Mar 10:19:30 10:26:24 49° 290° (WNW) 10:33:12 435.675
DELFI C3 27 Mar 10:24:43 10:28:50 72° 101° (E) 10:32:54 145.870
BEESAT 3 27 Mar 10:25:38 10:29:33 51° 116° (ESE) 10:33:35 437.485
ANTELSAT 27 Mar 10:26:39 10:30:50 60° 76° (ENE) 10:35:04 437.575/2403.000
HUMSAT D 27 Mar 10:29:25 10:32:47 23° 95° (E) 10:36:17 437.325/437.525
SEEDS 27 Mar 10:29:26 10:32:53 23° 288° (WNW) 10:36:13 437.485
AAUSAT CUBESAT 2 27 Mar 10:30:14 10:34:01 31° 287° (WNW) 10:37:44 437.432
Oscar 11 27 Mar 10:36:35 10:40:54 63° 284° (WNW) 10:45:12 145.826/435.025
CUBEBUG 2 27 Mar 10:39:25 10:43:50 77° 283° (WNW) 10:48:23 437.445
UWE-3 27 Mar 10:39:37 10:44:02 87° 102° (ESE) 10:48:34 435.000/436.395/437.385
FUNcube-1 27 Mar 10:41:57 10:46:20 72° 102° (ESE) 10:50:48 145.935
VELOX 1 27 Mar 10:43:43 10:47:00 21° 94° (E) 10:50:24 145.980
AIST 2 27 Mar 10:43:57 10:47:09 22° 111° (ESE) 10:50:29 435.215
AISAT 27 Mar 10:47:05 10:50:36 24° 95° (E) 10:54:13 437.250
CUBEBUG 1 27 Mar 10:53:16 10:54:02 11° 90° (E) 10:55:05 437.445
ZACube-1 27 Mar 10:53:52 10:58:15 80° 283° (WNW) 11:02:43 437.345
QB50P1 27 Mar 10:54:30 10:58:40 65° 76° (ENE) 11:02:51 145.935-145.965
COMPASS 1 27 Mar 10:56:36 10:58:59 14° 291° (WNW) 11:01:11 437.405
DUCHIFAT 1 27 Mar 10:57:47 11:01:59 70° 76° (ENE) 11:06:10 145.980
QB50P2 27 Mar 11:08:23 11:12:37 82° 258° (WSW) 11:16:51 145.880/145.840
ESTCUBE 1 27 Mar 11:08:30 11:11:48 20° 94° (E) 11:15:13 437.505/2401.250
VERMONT LUNAR 27 Mar 11:10:45 11:14:07 66° 22° (NNE) 11:17:29 437.305
UNISAT 6 27 Mar 11:23:34 11:27:13 27° 264° (W) 11:30:49 437.425
BEESAT 2 27 Mar 11:23:39 11:27:31 39° 303° (WNW) 11:31:25 435.950
PHONESAT 2.4 27 Mar 11:31:00 11:34:27 45° 18° (NNE) 11:37:53 2401.200-2431.200
TIGRISAT 27 Mar 11:35:32 11:38:45 20° 266° (W) 11:41:51 435.000
POPSAT HIP 1 27 Mar 11:38:10 11:42:04 35° 262° (W) 11:45:56 437.405
UKube-1 27 Mar 11:42:30 11:46:20 30° 288° (WNW) 11:50:05 .
50 SAT 27 Mar 11:43:09 11:47:09 62° 284° (WNW) 11:51:09 437.505
DX 1 27 Mar 11:49:42 11:53:15 24° 289° (WNW) 11:56:42 434.975-435.025
NANOSAT C BR1 27 Mar 11:50:14 11:53:48 25° 264° (W) 11:57:17 145.865
BUGSAT 1 27 Mar 11:50:25 11:54:17 35° 262° (W) 11:58:06 437.445
POLYITAN 1 27 Mar 11:52:22 11:55:49 24° 265° (W) 11:59:12 437.675
Oscar 19 27 Mar 12:03:44 12:04:33 10° 65° (ENE) 12:05:43 437.125/150
HUMSAT D 27 Mar 12:05:05 12:08:31 23° 288° (WNW) 12:11:51 437.325/437.525
BEESAT 3 27 Mar 12:05:52 12:07:59 13° 312° (NW) 12:09:56 437.485
VELOX 1 27 Mar 12:19:49 12:23:35 27° 288° (WNW) 12:27:16 145.980
AIST 2 27 Mar 12:21:53 12:25:37 28° 306° (NW) 12:29:21 435.215
AISAT 27 Mar 12:23:34 12:27:09 24° 289° (WNW) 12:30:40 437.250
CUBEBUG 1 27 Mar 12:26:34 12:30:47 51° 285° (WNW) 12:34:57 437.445
TISAT 1 27 Mar 12:43:26 12:47:27 45° 99° (E) 12:51:29 437.305
ESTCUBE 1 27 Mar 12:44:47 12:48:44 29° 288° (WNW) 12:52:35 437.505/2401.250
SPROUT 27 Mar 12:44:54 12:49:08 59° 100° (E) 12:53:22 437.525
VERMONT LUNAR 27 Mar 12:49:03 12:51:39 20° 215° (SW) 12:54:12 437.305
ITAMSAT 1 27 Mar 13:02:23 13:04:43 14° 66° (ENE) 13:07:21 435.822/435.867
PHONESAT 2.4 27 Mar 13:09:28 13:12:46 37° 212° (SSW) 13:16:06 2401.200-2431.200
ITUPSAT 1 27 Mar 13:13:23 13:15:34 13° 91° (E) 13:18:00 437.325
Gurwin Techsat 1B 27 Mar 13:35:54 13:39:57 24° 69° (ENE) 13:44:11 435.225
Oscar 19 27 Mar 13:38:14 13:43:20 78° 257° (WSW) 13:48:29 437.125/150
YUBILEINY 27 Mar 13:51:09 13:59:47 66° 93° (E) 14:08:31 435.215
SWISSCUBE 27 Mar 14:00:20 14:05:00 52° 100° (E) 14:09:39 437.505
BEESAT 27 Mar 14:03:43 14:08:24 52° 100° (E) 14:13:02 436.000
TISAT 1 27 Mar 14:21:09 14:22:54 12° 292° (WNW) 14:24:27 437.305
HORYU 2 27 Mar 14:21:43 14:23:17 12° 67° (ENE) 14:25:06 437.375
ITAMSAT 1 27 Mar 14:38:34 14:43:44 64° 258° (WSW) 14:48:57 435.822/435.867
ITUPSAT 1 27 Mar 14:49:10 14:53:50 50° 286° (WNW) 14:58:25 437.325
KKS-1 27 Mar 14:49:11 14:52:54 27° 96° (E) 14:56:42 437.445
AO-7 27 Mar 14:54:43 15:01:46 34° 64° (ENE) 15:09:01 29.400- 29.500
JUGNU 27 Mar 14:55:53 14:59:38 17° 171° (S) 15:03:27 437.505
PCSat 27 Mar 14:56:05 15:01:25 66° 113° (ESE) 15:06:49 145.827
O/OREOS (USA 219) 27 Mar 14:59:09 15:03:41 71° 252° (WSW) 15:08:08 437.305
AIST 1 27 Mar 15:09:19 15:12:55 26° 77° (ENE) 15:16:34
Gurwin Techsat 1B 27 Mar 15:14:53 15:19:46 36° 263° (W) 15:24:37 435.225
STARS 27 Mar 15:26:07 15:30:20 45° 99° (E) 15:34:34 437.465
SWISSCUBE 27 Mar 15:39:54 15:42:28 14° 293° (WNW) 15:44:47 437.505
BEESAT 27 Mar 15:43:16 15:45:51 14° 293° (WNW) 15:48:11 436.000
YUBILEINY 27 Mar 15:50:36 15:57:24 23° 292° (WNW) 16:03:50 435.215
SRMSAT 27 Mar 15:51:37 15:54:32 14° 167° (SSE) 15:57:32 437.500
HORYU 2 27 Mar 15:55:14 15:59:33 52° 260° (W) 16:03:53 437.375
JAS-2 27 Mar 15:58:19 16:04:48 62° 73° (ENE) 16:12:08 435.910
MOZHAYETS 4 27 Mar 16:11:06 16:11:28 10° 89° (E) 16:12:11
KKS-1 27 Mar 16:25:58 16:29:27 22° 289° (WNW) 16:32:50 437.445
PCSat 27 Mar 16:42:00 16:45:24 16° 311° (NW) 16:48:36 145.827
JUGNU 27 Mar 16:43:41 16:48:02 21° 180° (S) 16:52:23 437.505
AO-7 27 Mar 16:46:21 16:54:21 49° 259° (W) 17:02:16 29.400- 29.500
AIST 1 27 Mar 16:47:21 16:50:26 19° 271° (W) 16:53:22
Cubesat XI-IV 27 Mar 16:47:53 16:48:27 10° 64° (ENE) 16:49:25 437.490
CUTE-I 27 Mar 16:48:26 16:48:56 10° 64° (ENE) 16:49:48 437.470
M-CUBED/EXP-1 PRIME 27 Mar 16:48:46 16:49:12 10° 93° (E) 16:50:01 437.505
STARS 27 Mar 17:04:11 17:06:28 14° 292° (WNW) 17:08:33 437.465
SRMSAT 27 Mar 17:38:50 17:43:04 20° 176° (S) 17:47:19 437.500
RS-15 27 Mar 17:43:05 17:50:22 22° 104° (ESE) 17:58:17 29.354- 29.394
MOZHAYETS 4 27 Mar 17:44:35 17:49:10 61° 284° (WNW) 17:53:44
JAS-2 27 Mar 17:45:42 17:50:34 20° 272° (W) 17:55:27 435.910
AUBIESAT-1 27 Mar 17:57:14 18:02:00 58° 104° (ESE) 18:06:38 437.475
GONETS M04 27 Mar 18:12:44 18:17:19 17° 82° (E) 18:22:32
M-CUBED/EXP-1 PRIME 27 Mar 18:19:46 18:24:38 71° 288° (WNW) 18:29:22 437.505
Cubesat XI-IV 27 Mar 18:22:32 18:27:56 86° 255° (WSW) 18:33:21 437.490
CUTE-I 27 Mar 18:23:00 18:28:23 86° 254° (WSW) 18:33:47 437.470
JUGNU 27 Mar 18:32:47 18:36:26 17° 190° (S) 18:40:01 437.505
BEESAT 3 27 Mar 18:50:26 18:51:37 11° 46° (NE) 18:52:58 437.485
HO-68 27 Mar 19:00:07 19:03:09 14° 59° (ENE) 19:06:39 435.675
SO-50 27 Mar 19:02:18 19:06:47 60° 116° (ESE) 19:11:27 436.795
STRAND 1 27 Mar 19:23:24 19:28:23 53° 100° (E) 19:33:21 437.568
CUBESAT XI-V 27 Mar 19:25:47 19:30:24 69° 284° (WNW) 19:34:58 437.345
SRMSAT 27 Mar 19:27:33 19:31:37 19° 186° (S) 19:35:39 437.500
PRISM 27 Mar 19:30:43 19:34:54 71° 283° (WNW) 19:39:00 437.425
AUBIESAT-1 27 Mar 19:33:39 19:36:21 15° 298° (WNW) 19:38:48 437.475
GOMX 1 27 Mar 19:40:52 19:43:30 16° 71° (ENE) 19:46:16 467.674
SEEDS 27 Mar 19:44:52 19:45:34 10° 68° (ENE) 19:46:33 437.485
BEESAT 2 27 Mar 19:46:43 19:50:32 36° 56° (NE) 19:54:19 435.950
RS-15 27 Mar 19:50:48 20:01:43 78° 300° (WNW) 20:12:48 29.354- 29.394
GONETS M04 27 Mar 20:04:35 20:13:17 81° 277° (W) 20:22:03
COMPASS 1 27 Mar 20:08:23 20:11:00 17° 70° (ENE) 20:13:47 437.405
BRITE-PL 27 Mar 20:19:40 20:24:34 74° 77° (ENE) 20:29:06 437.365/2234.400
BEESAT 3 27 Mar 20:26:05 20:30:09 62° 244° (WSW) 20:34:07 437.485
CUSAT 1 27 Mar 20:27:27 20:29:02 13° 97° (E) 20:30:36 437.405
CANX-2 27 Mar 20:30:25 20:34:30 53° 76° (ENE) 20:38:40 2200.000
HO-68 27 Mar 20:42:51 20:50:00 85° 74° (ENE) 20:57:14 435.675
CUTE 1.7 + AOD 2 27 Mar 20:44:33 20:48:45 72° 77° (ENE) 20:52:59 437.475
SO-50 27 Mar 20:45:05 20:47:49 15° 314° (NW) 20:50:26 436.795
AIST 2 27 Mar 20:46:45 20:50:55 56° 59° (ENE) 20:55:01 435.215
UKube-1 27 Mar 21:01:10 21:01:32 10° 67° (ENE) 21:02:12 .
DANDE 27 Mar 21:03:08 21:06:27 35° 98° (E) 21:09:11 436.750
STRAND 1 27 Mar 21:04:09 21:07:12 15° 293° (WNW) 21:10:00 437.568
DX 1 27 Mar 21:07:00 21:09:02 13° 68° (ENE) 21:11:16 434.975-435.025
CINEMA 3 27 Mar 21:09:11 21:13:19 52° 76° (ENE) 21:17:23 145.822/145.860
DELFI C3 27 Mar 21:09:14 21:12:33 25° 72° (ENE) 21:15:58 145.870
DOVE 4 27 Mar 21:15:03 21:19:29 61° 259° (W) 21:23:43 437.250
AAUSAT CUBESAT 2 27 Mar 21:16:41 21:20:50 79° 257° (WSW) 21:25:02 437.432
SEEDS 27 Mar 21:16:53 21:20:58 53° 260° (W) 21:25:06 437.485
GOMX 1 27 Mar 21:17:07 21:21:29 38° 262° (W) 21:25:34 467.674
SRMSAT 27 Mar 21:18:15 21:20:07 11° 195° (SSW) 21:21:52 437.500
BEESAT 2 27 Mar 21:25:54 21:28:25 15° 250° (WSW) 21:30:44 435.950
Oscar 11 27 Mar 21:27:18 21:31:32 59° 75° (ENE) 21:35:47 145.826/435.025
UWE-3 27 Mar 21:33:27 21:37:20 40° 74° (ENE) 21:41:15 435.000/436.395/437.385
CUBEBUG 2 27 Mar 21:34:13 21:38:16 52° 76° (ENE) 21:42:18 437.445
FUNcube-1 27 Mar 21:34:33 21:38:14 32° 73° (ENE) 21:41:58 145.935
VELOX 1 27 Mar 21:39:18 21:41:08 13° 68° (ENE) 21:43:12 145.980
AISAT 27 Mar 21:42:35 21:44:54 15° 69° (ENE) 21:47:26 437.250
COMPASS 1 27 Mar 21:42:45 21:46:30 31° 264° (W) 21:50:13 437.405
ZACube-1 27 Mar 21:46:21 21:50:19 46° 75° (ENE) 21:54:19 437.345
ESTCUBE 1 27 Mar 22:05:59 22:07:53 13° 68° (ENE) 22:10:03 437.505/2401.250
GONETS M04 27 Mar 22:07:52 22:11:49 13° 298° (WNW) 22:15:02
RS-15 27 Mar 22:08:20 22:16:23 22° 326° (NW) 22:24:10 29.354- 29.394
CUSAT 1 27 Mar 22:10:42 22:11:45 11° 283° (WNW) 22:12:37 437.405
ISS 27 Mar 22:14:26 22:17:03 23° 130° (SE) 22:19:43 145.825
ANTELSAT 27 Mar 22:23:17 22:26:23 18° 93° (E) 22:29:41 437.575/2403.000
50 SAT 27 Mar 22:25:33 22:29:13 41° 75° (ENE) 22:32:56 437.505
UKube-1 27 Mar 22:32:58 22:37:15 60° 259° (W) 22:41:32 .
HO-68 27 Mar 22:35:06 22:38:40 13° 271° (W) 22:41:40 435.675
DX 1 27 Mar 22:40:45 22:44:57 45° 261° (W) 22:49:08 434.975-435.025
DELFI C3 27 Mar 22:44:45 22:47:45 19° 266° (W) 22:50:37 145.870
QB50P1 27 Mar 22:45:12 22:47:22 14° 92° (E) 22:49:45 145.935-145.965
DUCHIFAT 1 27 Mar 22:48:02 22:50:22 15° 93° (E) 22:52:54 145.980
HUMSAT D 27 Mar 22:52:30 22:56:30 52° 260° (W) 23:00:30 437.325/437.525
QB50P2 27 Mar 22:58:28 23:01:41 21° 95° (E) 23:05:00 145.880/145.840
FUNcube-1 27 Mar 23:12:11 23:14:43 15° 268° (W) 23:17:05 145.935
UWE-3 27 Mar 23:12:25 23:14:09 12° 269° (W) 23:15:40 435.000/436.395/437.385
VELOX 1 27 Mar 23:13:01 23:17:20 49° 260° (W) 23:21:40 145.980
AISAT 27 Mar 23:16:57 23:21:12 43° 261° (W) 23:25:26 437.250
UNISAT 6 27 Mar 23:18:16 23:22:53 80° 103° (ESE) 23:27:32 437.425
CUBEBUG 1 27 Mar 23:18:28 23:22:54 79° 77° (ENE) 23:27:19 437.445
ZACube-1 27 Mar 23:26:11 23:27:03 10° 270° (W) 23:27:37 437.345
POPSAT HIP 1 27 Mar 23:27:01 23:31:05 47° 99° (E) 23:35:11 437.405
TIGRISAT 27 Mar 23:29:27 23:34:01 79° 283° (WNW) 23:38:39 435.000
TISAT 1 27 Mar 23:32:41 23:35:50 21° 71° (ENE) 23:39:06 437.305
SPROUT 27 Mar 23:35:43 23:39:19 27° 72° (ENE) 23:43:00 437.525
BUGSAT 1 27 Mar 23:36:27 23:40:15 41° 99° (E) 23:44:05 437.445
NANOSAT C BR1 27 Mar 23:38:20 23:42:32 66° 101° (E) 23:46:44 145.865
ESTCUBE 1 27 Mar 23:39:57 23:44:23 51° 260° (W) 23:48:50 437.505/2401.250
POLYITAN 1 27 Mar 23:40:49 23:45:04 73° 102° (ESE) 23:49:18 437.675
PCSat 27 Mar 23:48:34 23:52:50 24° 53° (NE) 23:57:13 145.827
ISS 27 Mar 23:50:36 23:53:24 26° 324° (NW) 23:56:11 145.825
ANTELSAT 27 Mar 23:59:06 00:03:17 35° 287° (WNW) 00:07:29 437.575/2403.000
50 SAT 28 Mar 00:03:30 00:04:25 10° 269° (W) 00:05:04 437.505
YUBILEINY 28 Mar 00:07:14 00:14:09 26° 70° (ENE) 00:21:20 435.215
ITUPSAT 1 28 Mar 00:18:10 00:19:13 11° 66° (ENE) 00:20:34 437.325
QB50P1 28 Mar 00:19:32 00:23:26 37° 286° (WNW) 00:27:19 145.935-145.965
DUCHIFAT 1 28 Mar 00:22:31 00:26:22 35° 286° (WNW) 00:30:11 145.980
QB50P2 28 Mar 00:34:03 00:37:33 25° 288° (WNW) 00:40:59 145.880/145.840
RS-15 28 Mar 00:34:05 00:35:12 10° 2° (N) 00:36:24 29.354- 29.394
SWISSCUBE 28 Mar 01:03:12 01:07:36 38° 73° (ENE) 01:12:05 437.505
POPSAT HIP 1 28 Mar 01:04:54 01:06:38 12° 292° (WNW) 01:08:08 437.405
BEESAT 28 Mar 01:06:30 01:10:54 38° 73° (ENE) 01:15:21 436.000
TISAT 1 28 Mar 01:08:00 01:11:33 25° 264° (W) 01:15:00 437.305
SPROUT 28 Mar 01:12:13 01:15:26 20° 266° (W) 01:18:32 437.525
BUGSAT 1 28 Mar 01:13:44 01:15:26 12° 291° (WNW) 01:16:56 437.445
PCSat 28 Mar 01:31:22 01:36:26 41° 250° (WSW) 01:41:26 145.827
KKS-1 28 Mar 01:44:47 01:47:24 16° 69° (ENE) 01:50:12 437.445
ITUPSAT 1 28 Mar 01:51:49 01:56:37 69° 259° (W) 02:01:25 437.325
Oscar 19 28 Mar 01:53:48 01:58:49 51° 99° (E) 02:03:53 437.125/150
Gurwin Techsat 1B 28 Mar 01:57:32 01:59:20 12° 89° (E) 02:01:30 435.225
YUBILEINY 28 Mar 02:02:57 02:11:33 58° 269° (W) 02:20:01 435.215
STARS 28 Mar 02:19:53 02:23:25 25° 71° (ENE) 02:27:01 437.465
